Regional Weather Roundup
Issued by NWS Kansas City/Pleasant Hill, MO

Home | Current Version | Previous Version | Graphics & Text | Print | Product List | Glossary Off
Versions: 1 2 3 4 5 6 7 8 9 10 11 12 13 14 15 16 17 18 19 20 21 22 23 24 25 26 27

000
ASUS43 KEAX 240910
RWREAX

WEATHER ROUNDUP FOR EASTERN KANSAS AND NORTHWEST MISSOURI
NATIONAL WEATHER SERVICE KANSAS CITY/PLEASANT HILL MO
400 AM CDT SUN SEP 24 2017

KSZ040-057-103>105-MOZ028-029-037-043-241000-
...KANSAS CITY METROPOLITAN AREA...

CITY           SKY/WX    TMP DP  RH WIND       PRES   REMARKS
K.C. INTL      CLEAR     70  66  87 SE7       29.95S
K.C. DOWNTOWN  CLEAR     78  66  66 S7        29.94S
LEES SUMMIT    CLEAR     73  67  81 SE10      29.96S
OLATHE - IXD   CLEAR     71  65  81 SE9       29.95S
OLATHE - OJC   CLEAR     71  67  87 SE8       29.95S
LAWRENCE       CLEAR     69  67  93 E5        29.93S

$$

MOZ001>008-011>017-020>025-030>033-038>040-044>046-053-054-241000-
...NORTHERN AND CENTRAL MISSOURI...

CITY           SKY/WX    TMP DP  RH WIND       PRES   REMARKS
ST. JOSEPH     CLEAR     65  64  97 NE3       29.93F
MOSBY          SUNNY     64  64 100 CALM      29.96R
WARRENSBURG    CLEAR     70  64  83 SE7       29.96S
WHITEMAN AFB   CLEAR     69  69 100 S6        29.96S
CLINTON        CLEAR     68  64  88 CALM      29.98R
SEDALIA        CLEAR     69  67  93 SE7       29.99S
WARSAW         NOT AVBL
CHILLICOTHE      N/A     72  65  78 CALM      29.98R
KIRKSVILLE     CLEAR     66  61  84 SE5       30.00S

$$

MOZ041-047>049-056>058-063>065-088>090-097-241000-
...EASTERN AND SOUTHERN MISSOURI...

CITY           SKY/WX    TMP DP  RH WIND       PRES   REMARKS
ST. LOUIS INTL CLEAR     73  63  70 E6        30.02S
SPIRIT OF STL  CLEAR     66  65  96 CALM      30.00S
COLUMBIA       CLEAR     72  64  76 SE7       30.00S
JEFFERSON CITY CLEAR     69  63  81 SE5       29.99S
ROLLA          CLEAR     68  63  84 S7        30.02S
OSAGE BEACH    CLEAR     68  64  87 SE5       30.00F
SPRINGFIELD    CLEAR     70  65  84 SE5       29.99S
BRANSON          N/A     68  64  88 SE6       30.01S
JOPLIN         CLEAR     71  66  84 SE6       29.97R
WEST PLAINS    CLEAR     64  62  93 NE3       30.03S

$$

IAZ060-094-KSZ022-034>040-054-083-096-NEZ052-066-093-241000-
...KANSAS...SOUTHEAST NEBRASKA AND IOWA...

CITY           SKY/WX    TMP DP  RH WIND       PRES   REMARKS
TOPEKA         CLEAR     70  67  90 E3        29.92F
MANHATTAN      CLEAR     74  63  68 S9        29.89F
EMPORIA        CLEAR     68  62  81 S7        29.93S
CHANUTE        CLEAR     69  64  84 SE6       29.95R
WICHITA        CLEAR     72  66  81 SE12      29.89F
OMAHA          MOCLDY    73  65  75 S7        29.91S
LINCOLN        CLEAR     70  62  76 S7        29.90S
FALLS CITY     CLEAR     68  65  90 SE5       29.91F
LAMONI         CLEAR     71  64  78 SE3       29.97S
DES MOINES     CLEAR     73  64  73 SE7       29.96S

$$





USA.gov is the U.S. government's official web portal to all federal, state and local government web resources and services.